Regional Weather Roundup
Issued by NWS

Home | Current Version | Previous Version | Text Only | Print | Product List | Glossary Off
Versions: 1 2 3 4 5 6 7 8 9 10 11 12 13 14 15 16 17 18 19 20 21 22 23 24 25 26 27 28 29 30 31 32 33 34 35 36 37 38 39 40 41 42 43 44 45 46 47 48 49 50

000
ASUS44 KMEG 262110
RWRTN
TENNESSEE HOURLY STATE WEATHER ROUNDUP
NATIONAL WEATHER SERVICE MEMPHIS TN
400 PM CDT THU MAY 26 2016

TNZ002-004-019-021-049-052-054-088>092-262200-
WEST TENNESSEE

CITY           SKY/WX    TMP DP  RH WIND       PRES   REMARKS
MEMPHIS INTL   PTSUNNY   90  72  55 S10       29.96F HX  97
NWS MEMPHIS      N/A     88 N/A N/A MISG        N/A
JACKSON        MOSUNNY   89  72  56 S7        29.97F HX  96
DYERSBURG      MOSUNNY   86  72  62 SW5       29.97S HX  92
UNION CITY     CLOUDY    66  66 100 NE12      30.08R VSB 3/4
PARIS          PTSUNNY   68  63  83 N21       30.04R
LEXINGTON      MOSUNNY   88  72  58 S14       29.98F HX  94
$$

TNZ008-025-027-028-033-062-065-066-262200-
NORTH MIDDLE TENNESSEE

CITY           SKY/WX    TMP DP  RH WIND       PRES   REMARKS
NASHVILLE      PTSUNNY   89  61  38 S13       30.02S
CLARKSVILLE    LGT RAIN  70  67  90 NE7       30.02F
SMYRNA         MOSUNNY   90  62  38 S10G17    30.02F HX  90
COOKEVILLE     MOSUNNY   90  66  45 VRB7      30.06F HX  92
CROSSVILLE     PTSUNNY   80  61  52 VRB6      30.14R
$$

TNZ061-075-076-078-094-096-097-262200-
SOUTH MIDDLE TENNESSEE

CITY           SKY/WX    TMP DP  RH WIND       PRES   REMARKS
FAYETTEVILLE   SUNNY     88  61  40 S15       30.04F
TULLAHOMA      MOSUNNY   88  57  35 S12       30.07S
WINCHESTER     MOSUNNY   90  61  37 S9        30.06S
MCMINNVILLE    SUNNY     88  64  45 S5        30.06F
COLUMBIA       SUNNY     90  63  40 S10       30.01S HX  90
SHELBYVILLE    MOSUNNY   90  64  43 S10       30.05S HX  91
$$

TNZ017-018-042-046-047-262200-
NORTHEAST TENNESSEE

CITY           SKY/WX    TMP DP  RH WIND       PRES   REMARKS
TRI CITIES     CLOUDY    73  63  70 E5        30.14F
$$

TNZ012-013-036-069-073-074-262200-
CENTRAL EAST TENNESSEE

CITY           SKY/WX    TMP DP  RH WIND       PRES   REMARKS
KNOXVILLE      MOSUNNY   82  62  50 NE7       30.09F
OAK RIDGE      MOSUNNY   82  60  47 SE6       30.11F
GATLINBURG     SUNNY     79  61  53 E5        30.08F
$$

TNZ083-085-099-262200-
SOUTHEAST TENNESSEE

CITY           SKY/WX    TMP DP  RH WIND       PRES   REMARKS
CHATTANOOGA    MOSUNNY   90  56  31 S12       30.05F
$$

SKY/WX REPORTED AS FAIR MEANS FEW OR NO CLOUDS BELOW
12 THOUSAND FEET.





USA.gov is the U.S. government's official web portal to all federal, state and local government web resources and services.